When you browse on this site, cookies collect data to enhance your experience and personalize the content and advertising you see.
Visit our Privacy Policy to learn more. By continuing to use the site, you agree to this use of cookies and data.
  • în România
  • Lista ţărilor
  • Pe 7 zile
  • Temperatura apei
  • Meteo pe hartă
  • Widget-uri
  • user-avatar
    Intrare

    Meteo pe oră la Pszczyna

    Astăzi, 12 Noiembrie, Marţi

    Timp Temperatura Precipitaţii Vânt Presiune Umiditate
    00:00 +4°C° 0 mm 2 m/s 736 mmHg 81%
    01:00 +4°C° 0 mm 2 m/s 736 mmHg 79%
    02:00 +5°C° 0 mm 2 m/s 736 mmHg 79%
    03:00 +5°C° 0 mm 2 m/s 736 mmHg 78%
    04:00 +5°C° 0 mm 2 m/s 735 mmHg 78%
    05:00 +5°C° 0 mm 2 m/s 735 mmHg 79%
    06:00 +6°C° 0 mm 1 m/s 735 mmHg 79%
    07:00 +6°C° 0 mm 1 m/s 736 mmHg 78%
    08:00 +7°C° 0 mm 1 m/s 735 mmHg 75%
    09:00 +8°C° 0 mm 1 m/s 735 mmHg 72%
    10:00 +8°C° 0 mm 0 m/s 735 mmHg 70%
    11:00 +10°C° 0 mm 1 m/s 735 mmHg 69%
    12:00 +10°C° 0 mm 1 m/s 735 mmHg 69%
    13:00 +11°C° 0 mm 1 m/s 734 mmHg 69%
    14:00 +10°C° 0.7 mm 1 m/s 734 mmHg 76%
    15:00 +9°C° 0.7 mm 1 m/s 733 mmHg 82%
    16:00 +9°C° 0.7 mm 1 m/s 733 mmHg 89%
    17:00 +9°C° 1.7 mm 1 m/s 733 mmHg 91%
    18:00 +9°C° 1.7 mm 1 m/s 733 mmHg 93%
    19:00 +9°C° 1.7 mm 1 m/s 733 mmHg 95%
    20:00 +9°C° 1.1 mm 1 m/s 732 mmHg 95%
    21:00 +8°C° 1.1 mm 2 m/s 732 mmHg 95%
    22:00 +8°C° 1.1 mm 2 m/s 731 mmHg 94%
    23:00 +8°C° 0 mm 2 m/s 731 mmHg 93%

    Mâine, 13 Noiembrie, Miercuri

    Timp Temperatura Precipitaţii Vânt Presiune Umiditate
    00:00 +8°C° 0 mm 2 m/s 731 mmHg 92%
    01:00 +8°C° 0 mm 2 m/s 731 mmHg 90%
    02:00 +8°C° 0.2 mm 2 m/s 730 mmHg 90%
    03:00 +8°C° 0.2 mm 2 m/s 730 mmHg 90%
    04:00 +9°C° 0.2 mm 2 m/s 729 mmHg 90%
    05:00 +9°C° 0.5 mm 2 m/s 729 mmHg 91%
    06:00 +9°C° 0.5 mm 2 m/s 729 mmHg 93%
    07:00 +9°C° 0.5 mm 2 m/s 729 mmHg 94%
    08:00 +10°C° 0.3 mm 2 m/s 729 mmHg 93%
    09:00 +11°C° 0.3 mm 1 m/s 728 mmHg 92%
    10:00 +12°C° 0.3 mm 1 m/s 728 mmHg 92%
    11:00 +13°C° 0 mm 1 m/s 728 mmHg 86%
    12:00 +14°C° 0 mm 1 m/s 728 mmHg 80%
    13:00 +15°C° 0 mm 1 m/s 728 mmHg 74%
    14:00 +14°C° 0 mm 1 m/s 728 mmHg 77%
    15:00 +13°C° 0 mm 1 m/s 728 mmHg 81%
    16:00 +12°C° 0 mm 1 m/s 728 mmHg 84%
    17:00 +12°C° 0.2 mm 2 m/s 728 mmHg 83%
    18:00 +11°C° 0.2 mm 3 m/s 728 mmHg 82%
    19:00 +11°C° 0.2 mm 3 m/s 728 mmHg 81%
    20:00 +11°C° 0.2 mm 3 m/s 728 mmHg 83%
    21:00 +12°C° 0.2 mm 2 m/s 728 mmHg 86%
    22:00 +11°C° 0.2 mm 1 m/s 728 mmHg 88%
    23:00 +10°C° 0.8 mm 2 m/s 728 mmHg 89%

    Poimâine, 14 Noiembrie, Joi

    Timp Temperatura Precipitaţii Vânt Presiune Umiditate
    00:00 +10°C° 0.8 mm 3 m/s 729 mmHg 91%
    01:00 +9°C° 0.8 mm 3 m/s 729 mmHg 92%
    02:00 +9°C° 0 mm 3 m/s 730 mmHg 90%
    03:00 +8°C° 0 mm 3 m/s 730 mmHg 88%
    04:00 +7°C° 0 mm 3 m/s 731 mmHg 86%
    05:00 +7°C° 0 mm 2 m/s 732 mmHg 86%
    06:00 +7°C° 0 mm 2 m/s 732 mmHg 86%
    07:00 +8°C° 0 mm 1 m/s 733 mmHg 87%
    08:00 +8°C° 0 mm 1 m/s 733 mmHg 84%
    09:00 +9°C° 0 mm 1 m/s 734 mmHg 81%
    10:00 +10°C° 0 mm 1 m/s 734 mmHg 78%
    11:00 +10°C° 0 mm 1 m/s 734 mmHg 78%
    12:00 +10°C° 0 mm 2 m/s 734 mmHg 77%
    13:00 +10°C° 0 mm 2 m/s 734 mmHg 77%
    14:00 +10°C° 0 mm 2 m/s 734 mmHg 80%
    15:00 +10°C° 0 mm 2 m/s 734 mmHg 84%
    16:00 +9°C° 0 mm 2 m/s 734 mmHg 87%
    17:00 +9°C° 0 mm 2 m/s 734 mmHg 88%
    18:00 +9°C° 0 mm 2 m/s 734 mmHg 88%
    19:00 +9°C° 0 mm 2 m/s 734 mmHg 89%
    20:00 +9°C° 0 mm 2 m/s 734 mmHg 88%
    21:00 +9°C° 0 mm 2 m/s 734 mmHg 87%
    22:00 +9°C° 0 mm 2 m/s 734 mmHg 86%
    23:00 +8°C° 0 mm 2 m/s 734 mmHg 86%

    15 Noiembrie, Vineri

    Timp Temperatura Precipitaţii Vânt Presiune Umiditate
    00:00 +8°C° 0 mm 2 m/s 734 mmHg 87%
    01:00 +8°C° 0 mm 2 m/s 735 mmHg 87%
    02:00 +8°C° 0 mm 2 m/s 734 mmHg 87%
    03:00 +8°C° 0 mm 2 m/s 734 mmHg 86%
    04:00 +8°C° 0 mm 2 m/s 734 mmHg 86%
    05:00 +8°C° 0 mm 2 m/s 735 mmHg 85%
    06:00 +8°C° 0 mm 2 m/s 735 mmHg 85%
    07:00 +8°C° 0 mm 2 m/s 735 mmHg 84%
    08:00 +10°C° 0 mm 3 m/s 735 mmHg 79%
    09:00 +11°C° 0 mm 3 m/s 735 mmHg 74%
    10:00 +13°C° 0 mm 3 m/s 735 mmHg 69%
    11:00 +14°C° 0 mm 3 m/s 735 mmHg 67%
    12:00 +16°C° 0 mm 3 m/s 735 mmHg 65%
    13:00 +17°C° 0 mm 3 m/s 735 mmHg 62%
    14:00 +16°C° 0 mm 3 m/s 735 mmHg 67%
    15:00 +14°C° 0 mm 3 m/s 735 mmHg 72%
    16:00 +13°C° 0 mm 3 m/s 735 mmHg 76%
    17:00 +12°C° 0 mm 3 m/s 735 mmHg 77%
    18:00 +12°C° 0 mm 3 m/s 736 mmHg 77%
    19:00 +12°C° 0 mm 3 m/s 736 mmHg 78%
    20:00 +11°C° 0 mm 3 m/s 736 mmHg 79%
    21:00 +11°C° 0 mm 3 m/s 736 mmHg 80%
    22:00 +11°C° 0 mm 3 m/s 736 mmHg 80%
    23:00 +11°C° 0 mm 3 m/s 736 mmHg 81%

    16 Noiembrie, Sâmbătă

    Timp Temperatura Precipitaţii Vânt Presiune Umiditate
    00:00 +10°C° 0 mm 3 m/s 736 mmHg 81%
    01:00 +10°C° 0 mm 3 m/s 736 mmHg 82%
    02:00 +10°C° 0 mm 3 m/s 736 mmHg 82%
    03:00 +10°C° 0 mm 3 m/s 736 mmHg 81%
    04:00 +10°C° 0 mm 3 m/s 736 mmHg 81%
    05:00 +10°C° 0 mm 3 m/s 736 mmHg 82%
    06:00 +10°C° 0 mm 3 m/s 736 mmHg 83%
    07:00 +10°C° 0 mm 3 m/s 737 mmHg 83%
    08:00 +11°C° 0 mm 3 m/s 737 mmHg 79%
    09:00 +12°C° 0 mm 3 m/s 738 mmHg 75%
    10:00 +13°C° 0 mm 3 m/s 738 mmHg 71%
    11:00 +14°C° 0 mm 3 m/s 738 mmHg 69%
    12:00 +14°C° 0 mm 3 m/s 738 mmHg 68%
    13:00 +16°C° 0 mm 3 m/s 739 mmHg 66%
    14:00 +15°C° 0 mm 2 m/s 739 mmHg 70%
    15:00 +14°C° 0 mm 2 m/s 739 mmHg 73%
    16:00 +13°C° 0 mm 1 m/s 739 mmHg 77%
    17:00 +13°C° 0 mm 1 m/s 739 mmHg 78%
    18:00 +13°C° 0 mm 1 m/s 739 mmHg 79%
    19:00 +12°C° 0 mm 1 m/s 740 mmHg 80%
    20:00 +12°C° 0 mm 1 m/s 740 mmHg 81%
    21:00 +12°C° 0 mm 1 m/s 740 mmHg 81%
    22:00 +12°C° 0 mm 1 m/s 740 mmHg 82%
    23:00 +11°C° 0 mm 1 m/s 740 mmHg 82%

    17 Noiembrie, Duminică

    Timp Temperatura Precipitaţii Vânt Presiune Umiditate
    00:00 +11°C° 0 mm 1 m/s 739 mmHg 82%
    01:00 +11°C° 0 mm 1 m/s 739 mmHg 82%
    02:00 +11°C° 0 mm 1 m/s 739 mmHg 82%
    03:00 +10°C° 0 mm 1 m/s 739 mmHg 83%
    04:00 +10°C° 0 mm 1 m/s 738 mmHg 84%
    05:00 +10°C° 0 mm 1 m/s 738 mmHg 83%
    06:00 +9°C° 0 mm 2 m/s 738 mmHg 83%
    07:00 +9°C° 0 mm 2 m/s 738 mmHg 82%
    08:00 +10°C° 0 mm 2 m/s 738 mmHg 78%
    09:00 +12°C° 0 mm 1 m/s 738 mmHg 74%
    10:00 +13°C° 0 mm 1 m/s 738 mmHg 71%
    11:00 +13°C° 0 mm 1 m/s 737 mmHg 69%
    12:00 +14°C° 0 mm 1 m/s 737 mmHg 66%
    13:00 +15°C° 0 mm 1 m/s 737 mmHg 64%
    14:00 +14°C° 0 mm 1 m/s 737 mmHg 68%
    15:00 +13°C° 0 mm 2 m/s 737 mmHg 72%
    16:00 +12°C° 0 mm 2 m/s 737 mmHg 76%
    17:00 +10°C° 0 mm 2 m/s 737 mmHg 78%
    18:00 +10°C° 0 mm 2 m/s 737 mmHg 79%
    19:00 +9°C° 0 mm 2 m/s 736 mmHg 81%
    20:00 +10°C° 0 mm 1 m/s 737 mmHg 81%
    21:00 +10°C° 0 mm 1 m/s 737 mmHg 82%
    22:00 +10°C° 0 mm 1 m/s 737 mmHg 82%
    23:00 +10°C° 0 mm 1 m/s 737 mmHg 82%
    Arată mai mult